Location: �clusier
(49.9361°N, 2.7869°E)
Time: 05:44:13
(UTC+00:00)

Cosmos 2016 Rocket - Pass Details

Date: 01 November 2021
Orbit: 947 x 1000 km, 83.0° (Epoch: 05 December)

Event Time Altitude Azimuth Distance (km) Brightness Sun altitude
Rises 20:47:50 0° 243° (WSW) 3,636 7.3 -41.5°
Reaches altitude 10° 20:51:23 10° 264° (W) 2,687 6.7 -42.0°
Maximum altitude 20:55:08 17° 302° (WNW) 2,244 6.4 -42.5°
Drops below altitude 10° 20:58:54 10° 340° (NNW) 2,684 6.7 -43.0°
Sets 21:02:28 0° 1° (N) 3,631 7.3 -43.5°
